Simultaneous Nadir Overpasses (SNOs) Predictions

Prediction of SNOs between GOES-16 and TERRA Satellite Orbit:

Table of predicted SNOs for the next 14.0 days since TLE Epoch: 10/3/2025
Index Date Time (GOES-16) GOES-16 Lat,Lon TERRA Lat,Lon Distance(km) Time Diff (sec)
1 10/05/2025 16:11:12 0.07,-104.72 0.08,-104.89 19.53 80
2 10/08/2025 04:13:59 -0.07,-104.67 -0.16,-104.96 34.16 80
3 10/10/2025 03:51:55 -0.08,-104.67 0.87,-100.30 496.85 80
4 10/10/2025 16:11:19 0.08,-104.71 0.15,-105.02 34.54 80
5 10/12/2025 15:54:33 0.09,-104.71 -0.80,-100.33 496.46 80
6 10/13/2025 04:14:04 -0.09,-104.66 -0.16,-105.09 48.97 80
7 10/15/2025 03:51:57 -0.10,-104.65 0.79,-100.41 482.62 80
8 10/15/2025 16:11:21 0.10,-104.70 0.21,-105.13 48.86 80
